Weather History for Fredericksburg, TX

Change the Weather History Date:

Tuesday, May 14, 2013

  Actual Average (KSAT) Record (KSAT)
Temperature  
Mean Temperature 70 °F 76 °F  
Max Temperature 84 °F 87 °F 97 °F (2003)
Min Temperature 55 °F 66 °F 48 °F (1971)
Degree Days  
Heating Degree Days 0 0  
Month to date heating degree days 0  
Since 1 July heating degree days 1494  
Cooling Degree Days 4 12  
Month to date cooling degree days 140  
Year to date cooling degree days 399  
Growing Degree Days 20 (Base 50)    
Moisture  
Dew Point 56 °F    
Average Humidity 61    
Maximum Humidity 92    
Minimum Humidity 29    
Precipitation  
Precipitation 0.00 in 0.13 in 2.72 in (2010)
Month to date precipitation 1.64  
Year to date precipitation 9.60  
Snow  
Snow 0.00 in - - ()
Month to date snowfall  
Since 1 July snowfall  
Snow Depth -    
Sea Level Pressure  
Sea Level Pressure 30.15 in    
Wind  
Wind Speed 6 mph (South)    
Max Wind Speed 17 mph    
Max Gust Speed 23 mph    
Visibility 10 miles    
Events      
T = Trace of Precipitation, MM = Missing Value Source: NWS Daily Summary

Daily Weather History Graph

Daily Weather History Graph

Search for Another Location

Airport:

Trip Planner

Search our weather history database for the weather conditions in past years. The results will help you decide how hot, cold, wet, or windy it might be!

Date:

Astronomy

May. 14, 2013 Rise Set
Actual Time 6:42 AM CDT 8:22 PM CDT
Civil Twilight 6:16 AM CDT 8:48 PM CDT
Nautical Twilight 5:44 AM CDT 9:19 PM CDT
Astronomical Twilight 5:11 AM CDT 9:53 PM CDT
Moon 10:22 AM CDT (5/14) No Moon Set
Length of Visible Light 14h 32m
Length of Day
13h 39m
Waxing Crescent, 19% of the Moon is Illuminated
May 14
Waxing Crescent
May 17
First Quarter
May 24
Full
May 31
Last Quarter
Jun 8
New

Hourly Weather History & Observations

Time (CDT) Temp. Heat Index Dew Point Humidity Pressure Visibility Wind Dir Wind Speed Gust Speed Precip Events Conditions
12:15 AM 61.2 °F - 51.1 °F 69% 30.24 in 10.0 mi Calm Calm - N/A   Clear
12:35 AM 62.4 °F - 51.3 °F 67% 30.24 in 10.0 mi Calm Calm - N/A   Clear
12:55 AM 61.0 °F - 51.8 °F 72% 30.24 in 10.0 mi Calm Calm - N/A   Clear
1:15 AM 64.8 °F - 54.0 °F 68% 30.24 in 10.0 mi South 8.1 mph - N/A   Clear
1:35 AM 64.9 °F - 53.6 °F 67% 30.23 in 10.0 mi SSE 3.5 mph - N/A   Clear
1:55 AM 63.3 °F - 53.6 °F 71% 30.22 in 10.0 mi Calm Calm - N/A   Clear
2:15 AM 60.6 °F - 53.4 °F 77% 30.21 in 10.0 mi Calm Calm - N/A   Clear
2:35 AM 63.1 °F - 53.8 °F 71% 30.21 in 10.0 mi Calm Calm - N/A   Clear
2:55 AM 62.8 °F - 54.0 °F 73% 30.20 in 10.0 mi SSW 3.5 mph - N/A   Clear
3:15 AM 62.1 °F - 53.8 °F 74% 30.20 in 10.0 mi South 4.6 mph - N/A   Clear
3:35 AM 62.1 °F - 54.0 °F 75% 30.20 in 10.0 mi SSW 4.6 mph - N/A   Clear
3:55 AM 60.8 °F - 53.6 °F 77% 30.19 in 10.0 mi Calm Calm - N/A   Clear
4:15 AM 60.1 °F - 53.6 °F 79% 30.19 in 10.0 mi Calm Calm - N/A   Clear
4:35 AM 60.8 °F - 53.6 °F 77% 30.19 in 10.0 mi SSW 3.5 mph - N/A   Clear
4:55 AM 59.5 °F - 53.6 °F 81% 30.18 in 10.0 mi South 3.5 mph - N/A   Clear
5:15 AM 59.2 °F - 53.6 °F 82% 30.18 in 10.0 mi Calm Calm - N/A   Clear
5:35 AM 58.8 °F - 53.4 °F 82% 30.18 in 10.0 mi Calm Calm - N/A   Clear
5:55 AM 58.6 °F - 53.6 °F 83% 30.18 in 10.0 mi Calm Calm - N/A   Clear
6:15 AM 58.1 °F - 53.6 °F 85% 30.19 in 10.0 mi Calm Calm - N/A   Clear
6:35 AM 55.2 °F - 52.9 °F 92% 30.19 in 10.0 mi ESE 3.5 mph - N/A   Clear
6:55 AM 57.2 °F - 53.8 °F 88% 30.19 in 10.0 mi SE 3.5 mph - N/A   Clear
7:15 AM 57.7 °F - 54.1 °F 88% 30.20 in 10.0 mi Calm Calm - N/A   Mostly Cloudy
7:35 AM 59.0 °F - 54.9 °F 86% 30.20 in 10.0 mi Calm Calm - N/A   Mostly Cloudy
7:55 AM 59.7 °F - 55.8 °F 87% 30.21 in 10.0 mi Calm Calm - N/A   Mostly Cloudy
8:15 AM 60.6 °F - 56.1 °F 85% 30.21 in 10.0 mi Calm Calm - N/A   Scattered Clouds
8:35 AM 62.1 °F - 57.6 °F 85% 30.21 in 10.0 mi Calm Calm - N/A   Scattered Clouds
8:55 AM 65.1 °F - 58.8 °F 80% 30.21 in 10.0 mi SSW 11.5 mph - N/A   Clear
9:15 AM 66.7 °F - 57.9 °F 73% 30.21 in 10.0 mi SSW 9.2 mph - N/A   Clear
9:35 AM 68.9 °F - 55.9 °F 63% 30.22 in 10.0 mi SSW 11.5 mph - N/A   Clear
9:55 AM 70.2 °F - 56.3 °F 61% 30.22 in 10.0 mi South 15.0 mph - N/A   Clear
10:15 AM 69.4 °F - 57.2 °F 65% 30.22 in 10.0 mi South 15.0 mph 20.7 mph N/A   Clear
10:35 AM 70.7 °F - 56.1 °F 60% 30.22 in 10.0 mi SSW 16.1 mph - N/A   Clear
10:55 AM 71.1 °F - 56.5 °F 60% 30.22 in 10.0 mi South 10.4 mph 19.6 mph N/A   Clear
11:15 AM 72.9 °F - 56.8 °F 57% 30.21 in 10.0 mi South 12.7 mph - N/A   Clear
11:35 AM 73.8 °F - 55.6 °F 53% 30.21 in 10.0 mi SSW 11.5 mph - N/A   Clear
11:55 AM 75.7 °F - 55.2 °F 49% 30.20 in 10.0 mi South 12.7 mph 18.4 mph N/A   Clear
12:15 PM 76.1 °F - 55.4 °F 49% 30.19 in 10.0 mi South 11.5 mph - N/A   Clear
12:35 PM 76.5 °F - 55.4 °F 48% 30.18 in 10.0 mi SSW 13.8 mph 19.6 mph N/A   Clear
12:55 PM 78.6 °F - 53.1 °F 41% 30.18 in 10.0 mi South 15.0 mph 18.4 mph N/A   Clear
1:15 PM 79.0 °F - 51.3 °F 38% 30.17 in 10.0 mi South 15.0 mph 20.7 mph N/A   Clear
1:35 PM 80.6 °F - 51.4 °F 36% 30.16 in 10.0 mi South 9.2 mph - N/A   Clear
1:55 PM 80.6 °F - 50.0 °F 34% 30.16 in 10.0 mi SSW 11.5 mph 19.6 mph N/A   Clear
2:15 PM 81.7 °F - 47.1 °F 30% 30.15 in 10.0 mi South 11.5 mph 18.4 mph N/A   Clear
2:35 PM 82.0 °F - 46.9 °F 29% 30.14 in 10.0 mi South 17.3 mph 20.7 mph N/A   Clear
2:55 PM 83.3 °F - 47.8 °F 29% 30.13 in 10.0 mi South 10.4 mph 21.9 mph N/A   Clear
3:15 PM 82.4 °F - 47.5 °F 29% 30.12 in 10.0 mi South 9.2 mph 18.4 mph N/A   Clear
3:35 PM 83.8 °F - 49.5 °F 30% 30.11 in 10.0 mi South 9.2 mph 17.3 mph N/A   Clear
3:55 PM 83.5 °F - 50.5 °F 32% 30.11 in 10.0 mi South 8.1 mph 20.7 mph N/A   Clear
4:15 PM 83.3 °F - 52.5 °F 34% 30.10 in 10.0 mi South 11.5 mph 20.7 mph N/A   Clear
4:35 PM 84.2 °F 83.0 °F 55.2 °F 37% 30.09 in 10.0 mi SSW 13.8 mph 18.4 mph N/A   Clear
4:55 PM 82.9 °F 82.1 °F 55.9 °F 39% 30.09 in 10.0 mi South 13.8 mph 21.9 mph N/A   Scattered Clouds
5:15 PM 81.9 °F 81.4 °F 56.3 °F 41% 30.07 in 10.0 mi SSW 17.3 mph 21.9 mph N/A   Mostly Cloudy
5:35 PM 81.3 °F 81.1 °F 56.5 °F 42% 30.06 in 10.0 mi South 17.3 mph 23.0 mph N/A   Scattered Clouds
5:55 PM 82.9 °F 82.4 °F 57.2 °F 41% 30.05 in 10.0 mi SSW 16.1 mph - N/A   Scattered Clouds
6:15 PM 81.9 °F 81.7 °F 57.4 °F 43% 30.04 in 10.0 mi South 10.4 mph 20.7 mph N/A   Scattered Clouds
6:35 PM 81.5 °F 81.6 °F 58.1 °F 45% 30.04 in 10.0 mi SSE 12.7 mph 16.1 mph N/A   Scattered Clouds
6:55 PM 80.6 °F 81.1 °F 59.0 °F 48% 30.02 in 10.0 mi SSE 12.7 mph 18.4 mph N/A   Scattered Clouds
7:15 PM 79.5 °F - 59.5 °F 50% 30.02 in 10.0 mi SSE 12.7 mph 19.6 mph N/A   Clear
7:35 PM 78.3 °F - 60.1 °F 53% 30.02 in 10.0 mi South 12.7 mph 20.7 mph N/A   Clear
7:55 PM 77.2 °F - 59.9 °F 55% 30.02 in 10.0 mi SSE 9.2 mph - N/A   Clear
8:15 PM 77.2 °F - 59.5 °F 54% 30.03 in 10.0 mi South 10.4 mph 16.1 mph N/A   Scattered Clouds
8:35 PM 76.6 °F - 60.4 °F 57% 30.04 in 10.0 mi South 11.5 mph 18.4 mph N/A   Mostly Cloudy
8:55 PM 76.1 °F - 61.0 °F 59% 30.05 in 10.0 mi South 6.9 mph - N/A   Mostly Cloudy
9:15 PM 76.1 °F - 61.2 °F 60% 30.06 in 10.0 mi South 10.4 mph - N/A   Mostly Cloudy
9:35 PM 75.6 °F - 61.5 °F 62% 30.06 in 10.0 mi SSE 9.2 mph 16.1 mph N/A   Scattered Clouds
9:55 PM 75.2 °F - 61.7 °F 63% 30.06 in 10.0 mi South 11.5 mph 16.1 mph N/A   Scattered Clouds
10:15 PM 74.7 °F - 61.9 °F 64% 30.07 in 10.0 mi South 9.2 mph - N/A   Scattered Clouds
10:35 PM 74.5 °F - 62.4 °F 66% 30.08 in 10.0 mi South 12.7 mph 18.4 mph N/A   Scattered Clouds
10:55 PM 73.8 °F - 63.5 °F 70% 30.09 in 10.0 mi South 13.8 mph 23.0 mph N/A   Scattered Clouds
11:15 PM 73.2 °F - 64.0 °F 73% 30.09 in 10.0 mi South 13.8 mph 23.0 mph N/A   Scattered Clouds
11:35 PM 72.9 °F - 64.4 °F 75% 30.08 in 10.0 mi South 13.8 mph 18.4 mph N/A   Scattered Clouds
11:55 PM 72.5 °F - 64.4 °F 76% 30.09 in 10.0 mi South 17.3 mph 23.0 mph N/A   Mostly Cloudy